Skip Page Navigation
NASA JPL Caltech
NASA Logo - Jet Propulsion Laboratory + View the NASA Portal
+ Center for Near-Earth Object Studies
JPL Home Earth Solar System Stars & Galaxies Technology
JPL Solar System Dynamics
BODIES ORBITS EPHEMERIDES TOOLS PHYSICAL DATA DISCOVERY FAQ SITE MAP
JPL Small-Body Database Browser
Search: [ help ]  
48465 (1991 RS20)
Classification: Main-belt Asteroid          SPK-ID: 2048465
Ephemeris | Orbit Diagram | Orbital Elements | Mission Design | Physical Parameters | Discovery Circumstances | Close-Approach Data ]

[ show orbit diagram ]
Orbital Elements at Epoch 2459000.5 (2020-May-31.0) TDB
Reference: JPL 23 (heliocentric ecliptic J2000)
 Element Value Uncertainty (1-sigma)   Units 
e .09701301423624019 3.5523e-08  
a 2.933545880127793 1.6958e-08 au
q 2.648953751896292 1.0335e-07 au
i 3.101438827054096 5.0651e-06 deg
node 52.10900604563657 0.00010712 deg
peri 22.16664742212618 0.00011262 deg
M 187.7287290930365 3.5378e-05 deg
tp 2459878.709460280691
(2022-Oct-26.20946028)
0.00018287 TDB
period 1835.218397336785
5.02
1.5914e-05
4.357e-08
d
yr
n .1961619393759464 1.701e-09 deg/d
Q 3.218138008359294 1.8604e-08 au
  Orbit Determination Parameters
   # obs. used (total)      1590  
   data-arc span      10565 days (28.93 yr)  
   first obs. used      1991-09-13  
   last obs. used      2020-08-16  
   planetary ephem.      DE431  
   SB-pert. ephem.      SB431-N16  
   condition code      0  
   norm. resid. RMS      .4989  
   source      ORB  
   producer      Otto Matic  
   solution date      2020-Nov-12 23:37:15  

Additional Information
 Earth MOID = 1.66418 au 
 Jupiter MOID = 2.00917 au 
 T_jup = 3.266 
[ show covariance matrix ]

Ephemeris | Orbit Diagram | Orbital Elements | Mission Design | Physical Parameters | Discovery Circumstances | Close-Approach Data ]

Physical Parameter Table
Parameter Symbol Value Units Sigma Reference Notes
absolute magnitude H 13.1   n/a MPO385126  

48465 (1991 RS20)          Discovered 1991-Sep-14 by Holt, H. E. at Palomar
Reference: 20021120/Numbers.arcLast Updated: 2004-04-19

[ show close-approach data ]
Alternate Designations
 1991 RS20 = 1999 FP26 
Ephemeris | Orbit Diagram | Orbital Elements | Mission Design | Physical Parameters | Discovery Circumstances | Close-Approach Data ]
ABOUT SSD CREDITS/AWARDS PRIVACY/COPYRIGHT GLOSSARY LINKS
FirstGov 2020-Nov-30 01:24 UT
(server date/time)  
NASA Home Page
Site Manager:   Ryan S. Park
Webmaster  Alan B. Chamberlin